Regional Weather Roundup
Issued by NWS

Home | Current Version | Previous Version | Graphics & Text | Print | Product List | Glossary On
Versions: 1 2 3 4 5 6 7 8 9 10 11 12 13 14 15 16 17 18 19 20 21 22 23 24 25 26 27 28 29 30 31 32 33 34 35 36 37 38 39 40 41 42 43 44 45 46 47 48 49 50
000
ASUS43 KTOP 251608
RWRKS

WEATHER ROUNDUP FOR KANSAS
NATIONAL WEATHER SERVICE GOODLAND KS
1100 AM CDT SAT OCT 25 2014

NOTE:  "FAIR" INDICATES FEW OR NO CLOUDS BELOW 12,000 FEET WITH NO
SIGNIFICANT WEATHER AND/OR OBSTRUCTIONS TO VISIBILITY.

KSZ001>006-013>018-027>032-041>047-251700-
NORTHWEST KANSAS

CITY           SKY/WX    TMP DP  RH WIND       PRES   REMARKS
GOODLAND       SUNNY     65  33  30 NW10      30.16F
HAYS           SUNNY     64  48  55 CALM      30.09S
HILL CITY      SUNNY     64  47  53 NE5       30.11R
RUSSELL        SUNNY     68  56  65 SW3       30.07S
$$

KSZ061>065-074>080-084>089-251700-
SOUTHWEST KANSAS

CITY           SKY/WX    TMP DP  RH WIND       PRES   REMARKS
DODGE CITY     SUNNY     73  49  42 S5        30.11R
ELKHART          N/A     71  44  37 N2          N/A
GARDEN CITY    SUNNY     69  44  40 W6        30.11S
GREAT BEND     SUNNY     66  54  63 CALM      30.08F
LIBERAL        SUNNY     70  46  43 CALM      30.14F
PRATT          SUNNY     70  55  60 CALM      30.10S
$$

KSZ066>073-081>083-090>101-251700-
SOUTHEAST KANSAS

CITY           SKY/WX    TMP DP  RH WIND       PRES   REMARKS
CHANUTE        SUNNY     70  64  81 S6        30.09S
COFFEYVILLE    SUNNY     70  63  78 S3        30.09S
HUTCHINSON     SUNNY     72  62  71 SE7       30.08S
MEDICINE LODGE   N/A     73  62  68 VRB3      30.07F
NEWTON         SUNNY     72  61  68 SE6       30.10S
PARSONS        SUNNY     71  64  78 VRB5      30.11S
WICHITA INTL   SUNNY     71  61  70 SE5       30.07F
WICHITA JABRA  SUNNY     72  62  71 E3        30.08S
WICHITA MCCONL SUNNY     71  66  84 SE3       30.08F
WINFIELD       SUNNY     71  63  75 SW5       30.09S
$$

KSZ007>012-019>026-033>040-048>060-102>105-251700-
NORTHEAST KANSAS

CITY           SKY/WX    TMP DP  RH WIND       PRES   REMARKS
CONCORDIA      SUNNY     65  59  81 E6        30.09S
EMPORIA        SUNNY     69  63  81 S6        30.08S
LAWRENCE       CLOUDY    61  60  97 CALM      30.09S FOG
MANHATTAN      SUNNY     63  61  93 CALM      30.08S
MARYSVILLE     SUNNY     64  57  77 CALM      30.10S
OLATHE IND     MOSUNNY   61  60  97 CALM      30.09S FOG
OLATHE EXE     SUNNY     71  64  78 CALM      30.08R
SALINA         SUNNY     68  61  78 SE5       30.07S
TOPEKA BILLARD MOSUNNY   62  62 100 CALM      30.09S FOG
TOPEKA FORBES  SUNNY     68  62  81 SE3       30.08S
$$



USA.gov is the U.S. government's official web portal to all federal, state and local government web resources and services.